User: anonymous   Login
Location: Pedimozza
(42.0500°N, 9.3500°E)
Time: 02:25:12
(UTC+00:00)
Language:

Landsat 7 - Orbit

View from above orbital plane
View from above orbital plane
View from above satellite
View from above satellite

Ground track
Ground track

The orbit data is extracted from the following two-line orbital elements,

1 25682U 99020A   19291.74411200  .00000013  00000-0  12817-4 0  9991
2 25682  98.1167 356.1345 0001003  96.0124 264.1189 14.57157092 90898
Epoch (UTC): 18 October 2019 17:51:31
Eccentricity: 0.0001003
inclination: 98.1167°
perigee height: 701 km
apogee height: 703 km
right ascension of ascending node: 356.1345°
argument of perigee: 96.0124°
revolutions per day: 14.57157092
mean anomaly at epoch: 264.1189°
orbit number at epoch: 9089

The dashed part of the orbit path shows where the satellite is in the earth's shadow,  

DLR